TimeCDT,TemperatureF,Dew PointF,Humidity,Sea Level PressureIn,VisibilityMPH,Wind Direction,Wind SpeedMPH,Gust SpeedMPH,PrecipitationIn,Events,Conditions,WindDirDegrees,DateUTC
12:56 AM,64.9,62.1,90,30.04,9.0,Calm,Calm,-,N/A,,Partly Cloudy,0,2012-09-21 05:56:00
1:56 AM,64.9,62.1,90,30.03,10.0,Calm,Calm,-,N/A,,Partly Cloudy,0,2012-09-21 06:56:00
2:56 AM,66.0,61.0,84,30.03,10.0,Calm,Calm,-,N/A,,Partly Cloudy,0,2012-09-21 07:56:00
3:56 AM,68.0,61.0,78,30.03,10.0,Calm,Calm,-,N/A,,Scattered Clouds,0,2012-09-21 08:56:00
4:56 AM,64.9,61.0,87,30.03,10.0,Calm,Calm,-,N/A,,Partly Cloudy,0,2012-09-21 09:56:00
5:56 AM,64.9,61.0,87,30.03,10.0,Calm,Calm,-,N/A,,Partly Cloudy,0,2012-09-21 10:56:00
6:56 AM,64.9,61.0,87,30.04,10.0,Calm,Calm,-,N/A,,Scattered Clouds,0,2012-09-21 11:56:00
7:56 AM,69.1,63.0,81,30.04,10.0,ENE,3.5,-,N/A,,Partly Cloudy,70,2012-09-21 12:56:00
8:56 AM,73.9,62.1,66,30.04,10.0,ENE,6.9,-,N/A,,Scattered Clouds,70,2012-09-21 13:56:00
9:56 AM,79.0,63.0,58,30.05,10.0,NNE,4.6,-,N/A,,Scattered Clouds,30,2012-09-21 14:56:00
10:56 AM,80.1,63.0,56,30.06,10.0,East,5.8,-,N/A,,Scattered Clouds,80,2012-09-21 15:56:00
11:56 AM,82.9,62.1,49,30.05,10.0,ENE,4.6,-,N/A,,Scattered Clouds,70,2012-09-21 16:56:00
12:56 PM,84.0,61.0,46,30.03,10.0,NW,4.6,-,N/A,,Scattered Clouds,310,2012-09-21 17:56:00
1:56 PM,86.0,62.1,44,30.01,10.0,North,6.9,-,N/A,,Scattered Clouds,360,2012-09-21 18:56:00
2:56 PM,86.0,62.1,44,29.99,10.0,NE,5.8,-,N/A,,Scattered Clouds,40,2012-09-21 19:56:00
3:56 PM,86.0,62.1,44,29.98,10.0,Variable,5.8,-,N/A,,Scattered Clouds,0,2012-09-21 20:56:00
4:56 PM,84.9,63.0,48,29.97,10.0,ENE,4.6,-,N/A,,Scattered Clouds,60,2012-09-21 21:56:00
5:56 PM,82.9,64.0,53,29.96,10.0,NE,4.6,-,N/A,,Scattered Clouds,40,2012-09-21 22:56:00
6:56 PM,77.0,66.0,69,29.97,10.0,Calm,Calm,-,N/A,,Scattered Clouds,0,2012-09-21 23:56:00
7:56 PM,75.0,66.9,76,29.99,10.0,SSW,5.8,-,N/A,,Scattered Clouds,200,2012-09-22 00:56:00
8:56 PM,73.0,66.9,81,30.01,10.0,Calm,Calm,-,N/A,,Mostly Cloudy,0,2012-09-22 01:56:00
9:56 PM,71.1,66.9,87,30.03,10.0,Calm,Calm,-,N/A,,Mostly Cloudy,0,2012-09-22 02:56:00
10:56 PM,71.1,66.9,87,30.03,10.0,Calm,Calm,-,N/A,,Scattered Clouds,0,2012-09-22 03:56:00
11:56 PM,69.1,66.0,90,30.02,10.0,Calm,Calm,-,N/A,,Scattered Clouds,0,2012-09-22 04:56:00